User: anonymous   Login
Location: Montr�al
(45.5000°N, 73.5830°W)
Time: 01:11:00
(UTC-04:00)
Language:

Cosmos 1470 Rocket - Orbit

View from above orbital plane
View from above orbital plane
View from above satellite
View from above satellite

Ground track
Ground track

The orbit data is extracted from the following two-line orbital elements,

1 14148U 83061B   14295.02905770  .00000912  00000-0  10966-3 0  7891
2 14148 082.5173 097.1004 0020270 286.6359 213.2526 14.82752925691199
Epoch (UTC): 22 October 2014 00:41:50
Eccentricity: 0.0020270
inclination: 82.5173°
perigee height: 606 km
apogee height: 635 km
right ascension of ascending node: 97.1004°
argument of perigee: 286.6359°
revolutions per day: 14.82752925
mean anomaly at epoch: 213.2526°
orbit number at epoch: 69119

The dashed part of the orbit path shows where the satellite is in the earth's shadow,  

DLR